LiveATC.Net - Listen to live air traffic control over the Internet!


ICAO: TBPB  IATA: BGI   Airport: Grantley Adams International Airport
City: Bridgetown
Country: Barbados   Continent: North America
TBPB METAR Weather: TBPB 082038Z 05012KT 1000 +SHRA BKN008 FEW010CB BKN036 26/25 Q1014 NOSIG
TBPB Flight Activity (FlightAware)

TBPB Gnd/Twr/Radar/Center
Feed Status: UP   Listeners: 3
Listen in your browser - HTML5 player (in browser, HTML5)
Click here to listen with your own player (launches your MP3 player)
Archive Access: TBPB Gnd/Twr/Radar/Center
FacilityFrequency
Adams Approach/Departure128.850
Adams Approach/Departure129.350
Adams Ground121.900
Adams Tower118.700
Piarco Center123.700

NOTICE

Unauthorized use prohibited. See LiveATC.net Terms of Service


Airport/ARTCC Code
Frequency Search
(e.g., 124.400, 128.75)
Site-wide search
 


Browse Feeds
Top 50 Feeds
Coverage Map
Bad Weather Areas

LiveATC FAQ
Offer LiveATC feed
Contact LiveATC.net
Press Inquiries

LiveATC on iPhone
LiveATC on Android

Windows Phone
Windows 8/10

LiveATC Mobile
(Mobile browser)

ATC Audio Archives
Interesting Recordings

LiveATC Forums


Home Page
About LiveATC.net
Make a Donation
Terms of Use
Privacy Policy

Canadian Air Freqs

AIRMETs/SIGMETs

FAA Airport Status
Nat'l Airspace Status
Arrival Demand Charts


Server Software By:
Icecast.org
Liquidsoap